Flag for Iran Weather past 2 weeks in Bandar-Abbas, Iran

Now
91 °F

Partly sunny.


Feels Like: 111 °F
Forecast: 82 / 98 °F
Wind: 7 mph from Southeast

Location: Bandarabbass

Current Time: Sep 17, 2014 at 10:36:02 AM

Latest Report: Sep 17, 2014 at 10:00 AM


Visibility: 4 mi

Pressure: 29.65 "Hg

Humidity: 71%

Dew point: 81 °F

Location of Bandar-AbbasLocation

Historic Weather in Bandar-Abbas — Graph

°F

Bandar-Abbas temperature yesterday

Maximum temperature yesterday: 95 °F (at 1:00 PM)
Minimum temperature yesterday: 84 °F (at 5:30 AM)
Average temperature yesterday: 90 °F

Past Weeks' High & Low Weather Summary

 TemperatureHumidityPressure
High113 °F (Sep 2, 1:30 PM)94% (Sep 15, 7:30 AM)29.80 "Hg (Sep 15, 7:30 AM)
Low81 °F (Sep 4, 7:00 AM)14% (Sep 2, 2:30 PM)29.42 "Hg (Sep 5, 3:55 PM)
Average92 °F69%29.57 "Hg
* Reported Sep 2 9:30 AM — Sep 17 9:30 AM, Bandar-Abbas, Weather by CustomWeather, © 2014

Note: Actual official high and low records may vary slightly from our data, if they occured in-between our weather recording intervals... More about our weather records

Advertising

Bandar-Abbas weather history for previous 24 hours

 ConditionsComfort  
Time TempWeatherWind HumidityBarometerVisibility
9:30 AM
Sep 17
90 °FPartly sunny.12 mph75%29.65 "Hg4 mi
9:00 AM90 °FPartly sunny.12 mph75%29.65 "Hg3 mi
8:30 AM86 °FPartly sunny.7 mph79%29.65 "Hg2 mi
8:00 AM86 °FFog.7 mph79%29.65 "Hg2 mi
7:30 AM84 °FFog.7 mph84%29.62 "Hg2 mi
6:55 AM84 °FFog.5 mph84%29.62 "Hg2 mi
6:30 AM84 °FFog.7 mph84%29.62 "Hg2 mi
4:30 AM84 °FFog.7 mph84%29.59 "Hg2 mi
3:30 AM84 °FFog.7 mph84%29.59 "Hg2 mi
2:30 AM86 °FFog.7 mph84%29.59 "Hg2 mi
2:00 AM86 °FFog.7 mph84%29.59 "Hg2 mi
1:30 AM86 °FFog.7 mph84%29.62 "Hg2 mi
1:00 AM86 °FFog.5 mph84%29.62 "Hg2 mi
12:30 AM86 °FFog.7 mph84%29.62 "Hg2 mi
12:00 AM86 °FFog.5 mph84%29.62 "Hg2 mi
11:30 PM
Sep 16
88 °FFog.5 mph79%29.62 "Hg2 mi
11:00 PM88 °FFog.5 mph79%29.62 "Hg2 mi
10:30 PM88 °FHaze.5 mph79%29.62 "Hg2 mi
10:00 PM88 °FHaze.5 mph79%29.62 "Hg2 mi
9:30 PM90 °FHaze.5 mph75%29.59 "Hg3 mi
9:00 PM90 °FHaze.5 mph75%29.59 "Hg3 mi
8:30 PM90 °FHaze.7 mph75%29.59 "Hg3 mi
8:00 PM90 °FHaze.7 mph75%29.59 "Hg3 mi
7:30 PM90 °FHaze.7 mph75%29.59 "Hg3 mi
7:00 PM90 °FHaze.9 mph75%29.59 "Hg3 mi
6:30 PM91 °FSunny.7 mph71%29.59 "Hg3 mi
6:00 PM91 °FHaze.9 mph71%29.59 "Hg3 mi
5:00 PM93 °FHaze.12 mph67%29.59 "Hg3 mi
4:00 PM93 °FHaze.14 mph67%29.59 "Hg3 mi
3:00 PM93 °FScattered clouds.9 mph67%29.62 "Hg3 mi
1:55 PM93 °FScattered clouds.7 mph67%29.65 "Hg2 mi
1:30 PM95 °FScattered clouds.14 mph63%29.65 "Hg2 mi
1:00 PM95 °FScattered clouds.14 mph63%29.68 "Hg2 mi
12:30 PM93 °FScattered clouds.12 mph67%29.68 "Hg2 mi
12:00 PM93 °FScattered clouds.14 mph67%29.68 "Hg2 mi
11:30 AM93 °FScattered clouds.7 mph63%29.68 "Hg2 mi
11:00 AM93 °FScattered clouds.14 mph67%29.68 "Hg2 mi
10:30 AM91 °FScattered clouds.9 mph71%29.68 "Hg2 mi
10:00 AM91 °FScattered clouds.9 mph71%29.68 "Hg2 mi
Weather by CustomWeather, © 2014

See weather overviewHow to use our weather pages